Location: Newark
(7.0858°N, 171.3717°E)
Time: 22:30:03
(UTC+00:00)

S-56A Canister/Altair - Visible Passes

Search period start: 18 June 2021 00:00
Search period end: 28 June 2021 00:00
Orbit: 632 x 2500 km, 38.9° (Epoch: 18 June)

Date Brightness Start Highest point End Pass type
(mag) Time Alt. Az. Time Alt. Az. Time Alt. Az.
26 Jun 11.0 08:38:07 10° S 08:39:25 11° S 08:39:25 11° S visible
27 Jun 10.9 08:05:43 10° S 08:09:15 12° SSE 08:09:15 12° SSE visible
27 Jun 11.2 10:06:19 10° SSW 10:06:45 11° SSW 10:06:45 11° SSW visible
